Regional Weather Roundup
Issued by NWS

Home | Current Version | Previous Version | Text Only | Print | Product List | Glossary On
Versions: 1 2 3 4 5 6 7 8 9 10 11 12 13 14 15 16 17 18 19 20 21 22 23 24 25 26 27 28 29 30 31 32 33 34 35 36 37 38 39 40 41 42 43 44 45 46 47 48 49 50
000
ASUS43 KTOP 301308
RWRKS

WEATHER ROUNDUP FOR KANSAS
NATIONAL WEATHER SERVICE GOODLAND KS
800 AM CDT THU JUL 30 2015

NOTE:  "FAIR" INDICATES FEW OR NO CLOUDS BELOW 12,000 FEET WITH NO
SIGNIFICANT WEATHER AND/OR OBSTRUCTIONS TO VISIBILITY.

KSZ001>006-013>018-027>032-041>047-301400-
NORTHWEST KANSAS

CITY           SKY/WX    TMP DP  RH WIND       PRES   REMARKS
GOODLAND       SUNNY     65  60  84 S7        30.29R
HAYS           MOSUNNY   70  57  64 NE6       30.25R
HILL CITY      CLOUDY    69  62  78 CALM      30.26R
RUSSELL        SUNNY     67  62  84 NE5       30.24R
$$

KSZ061>065-074>080-084>089-301400-
SOUTHWEST KANSAS

CITY           SKY/WX    TMP DP  RH WIND       PRES   REMARKS
DODGE CITY     MOSUNNY   69  67  93 E5        30.24R
ELKHART          N/A     68  63  84 W5          N/A
GARDEN CITY    SUNNY     67  66  97 N3        30.26R FOG
GREAT BEND     PTSUNNY   70  64  83 E5        30.24R
LIBERAL        CLOUDY    72  64  78 N5        30.25R
PRATT          CLOUDY    68  68 100 SE3       30.25R
$$

KSZ066>073-081>083-090>101-301400-
SOUTHEAST KANSAS

CITY           SKY/WX    TMP DP  RH WIND       PRES   REMARKS
CHANUTE        MOSUNNY   76  66  71 E10       30.19R
COFFEYVILLE    MOSUNNY   76  67  73 E9        30.15R
HUTCHINSON     RAIN      70  67  90 E8        30.22R
MEDICINE LODGE   N/A     69  69 100 N7        30.22R
PARSONS        MOSUNNY   75  67  76 VRB3      30.18R
WICHITA INTL   TSTM      70  68  93 NE10      30.21R FOG
WICHITA JABRA  TSTM      69  69 100 NE5       30.23S FOG
WICHITA MCCONL TSTM      70  68  94 NE13      30.22S FOG
WINFIELD       CLOUDY    74  66  76 E8        30.17R
$$

KSZ007>012-019>026-033>040-048>060-102>105-301400-
NORTHEAST KANSAS

CITY           SKY/WX    TMP DP  RH WIND       PRES   REMARKS
CONCORDIA      SUNNY     67  63  87 CALM      30.24R
EMPORIA        CLOUDY    71  66  84 E6        30.21R
LAWRENCE       SUNNY     67  64  90 CALM      30.21R
MANHATTAN      MOSUNNY   69  64  84 CALM      30.22R
MARYSVILLE     SUNNY     64  64 100 CALM      30.23R
OLATHE IND     MOSUNNY   72  66  81 NE3       30.21R
OLATHE EXE     SUNNY     72  66  81 CALM      30.20R
SALINA         PTSUNNY   70  64  81 CALM      30.23R
TOPEKA BILLARD SUNNY     69  67  93 CALM      30.21R
TOPEKA FORBES  SUNNY     70  64  81 CALM      30.20R
$$



USA.gov is the U.S. government's official web portal to all federal, state and local government web resources and services.